Location: Pisa
(43.7170°N, 10.3830°E)
Time: 22:00:37
(UTC+02:00)

ISS - Pass Details

Date: 14 May 2021
Orbit: 417 x 422 km, 51.6° (Epoch: 12 June)

Event Time Altitude Azimuth Distance (km) Brightness Sun altitude
Exits shadow 02:50:57 - 305° (NW) 2,007 -0.2 -23.9°
Reaches altitude 10° 02:52:21 10° 315° (NW) 1,507 -0.7 -23.8°
Maximum altitude 02:55:12 24° 12° (NNE) 914 -1.4 -23.5°
Drops below altitude 10° 02:58:02 10° 69° (ENE) 1,507 -0.3 -23.3°
Sets 03:00:24 0° 84° (E) 2,371 0.5 -23.1°
